Date,TemperatureHighF,TemperatureAvgF,TemperatureLowF,DewpointHighF,DewpointAvgF,DewpointLowF,HumidityHigh,HumidityAvg,HumidityLow,PressureMaxIn,PressureMinIn,WindSpeedMaxMPH,WindSpeedAvgMPH,GustSpeedMaxMPH,PrecipitationSumIn
2013-1-1,44,42,40,-100,-100,-100,0,0,100,29.98,29.88,11,6,16,0.00
2013-1-2,40,35,32,-100,-100,-100,0,0,100,0.00,40.00,16,10,20,0.00
2013-1-3,38,33,30,-100,-100,-100,0,0,100,0.00,40.00,11,7,13,0.00
2013-1-4,43,38,33,-100,-100,-100,0,0,100,0.00,40.00,22,13,31,0.00
2013-1-5,41,38,36,-100,-100,-100,0,0,100,0.00,40.00,18,8,25,0.00
2013-1-6,47,42,37,-100,-100,-100,0,0,100,0.00,40.00,16,6,20,0.00
2013-1-7,46,42,36,-100,-100,-100,0,0,100,0.00,40.00,16,8,20,0.00
2013-1-8,46,41,35,-100,-100,-100,0,0,100,0.00,40.00,13,6,22,0.00
2013-1-9,54,43,37,-100,-100,-100,0,0,100,0.00,40.00,16,4,25,0.00
2013-1-10,53,46,41,-100,-100,-100,0,0,100,0.00,40.00,13,6,18,0.00
2013-1-11,43,41,39,-100,-100,-100,0,0,100,0.00,40.00,9,2,9,0.00
2013-1-12,48,44,42,-100,-100,-100,0,0,100,0.00,40.00,7,3,9,0.00
2013-1-13,47,44,41,-100,-100,-100,0,0,100,0.00,40.00,13,6,16,0.00
2013-1-14,56,49,42,-100,-100,-100,0,0,100,0.00,40.00,20,7,25,0.00
2013-1-15,42,40,38,-100,-100,-100,0,0,100,30.26,30.14,27,3,18,0.00
2013-1-16,42,39,36,-100,-100,-100,0,0,100,30.14,29.84,18,7,22,0.00
2013-1-17,45,42,40,-100,-100,-100,0,0,100,30.11,29.95,13,6,18,0.00
2013-1-18,40,37,35,-100,-100,-100,0,0,100,30.49,30.01,22,11,29,0.00
2013-1-19,48,42,36,-100,-100,-100,0,0,100,30.42,29.96,20,16,27,0.00
2013-1-20,57,48,40,-100,-100,-100,0,0,100,30.07,29.80,27,13,36,0.00
2013-1-21,43,36,32,-100,-100,-100,0,0,100,30.09,29.78,20,11,31,0.00
2013-1-22,33,24,20,-100,-100,-100,0,0,100,30.27,29.89,29,19,38,0.00
2013-1-23,26,22,16,-100,-100,-100,0,0,100,30.33,30.14,22,12,34,0.00
2013-1-24,28,23,18,-100,-100,-100,0,0,100,30.49,30.08,20,14,29,0.00
2013-1-25,25,22,20,-100,-100,-100,0,0,100,30.49,30.06,13,8,20,0.00
2013-1-26,34,28,22,-100,-100,-100,0,0,100,30.41,30.06,16,9,20,0.00
2013-1-27,35,30,26,-100,-100,-100,0,0,100,30.58,30.41,11,6,16,0.00
2013-1-28,39,36,33,-100,-100,-100,0,0,100,30.50,30.02,18,9,22,0.00
2013-1-29,54,42,35,-100,-100,-100,0,0,100,30.12,29.98,16,6,20,0.00
2013-1-30,54,47,42,-100,-100,-100,0,0,100,29.99,29.29,25,16,31,0.00
2013-1-31,51,41,33,-100,-100,-100,0,0,100,29.90,29.23,31,21,40,0.00
2013-2-1,37,30,23,-100,-100,-100,0,0,100,30.35,29.80,29,18,38,0.00
2013-2-2,32,26,20,-100,-100,-100,0,0,100,30.36,30.00,20,11,27,0.00
2013-2-3,34,31,29,-100,-100,-100,0,0,100,30.01,29.82,20,6,29,0.00
2013-2-4,38,32,26,-100,-100,-100,0,0,100,30.09,29.89,25,12,31,0.00
2013-2-5,38,35,34,-100,-100,-100,0,0,100,29.92,29.84,11,6,13,0.00
2013-2-6,44,38,33,-100,-100,-100,0,0,100,30.35,29.91,20,7,25,0.00
2013-2-7,38,35,31,-100,-100,-100,0,0,100,30.44,30.19,16,7,20,0.00
2013-2-8,41,38,34,-100,-100,-100,0,0,100,30.19,29.67,29,14,36,0.00
2013-2-9,40,34,31,-100,-100,-100,0,0,100,30.36,29.84,31,20,43,0.00
2013-2-10,38,34,29,-100,-100,-100,0,0,100,30.48,30.26,16,8,20,0.00
2013-2-11,56,43,37,-100,-100,-100,0,0,100,30.26,29.67,18,-5,27,0.00
2013-2-12,52,46,39,-100,-100,-100,0,0,100,29.97,29.75,20,9,29,0.00
2013-2-13,42,38,34,-100,-100,-100,0,0,100,29.95,29.64,16,9,18,0.00
2013-2-14,43,39,35,-100,-100,-100,0,0,100,30.01,29.72,16,8,20,0.00
2013-2-15,49,42,37,-100,-100,-100,0,0,100,30.02,29.88,20,9,29,0.00
2013-2-16,37,36,35,-100,-100,-100,0,0,100,30.00,29.79,18,-19,60,0.00
2013-2-17,35,30,27,-100,-100,-100,0,0,100,30.15,29.78,27,21,38,0.00
2013-2-18,39,31,24,-100,-100,-100,0,0,100,30.36,30.15,18,12,27,0.00
2013-2-19,46,41,39,-100,-100,-100,0,0,100,30.17,29.72,20,15,27,0.00
2013-2-20,41,34,28,-100,-100,-100,0,0,100,30.13,29.82,27,18,36,0.00
2013-2-21,38,32,26,-100,-100,-100,0,0,100,30.30,30.10,25,16,29,0.00
2013-2-22,34,32,31,-100,-100,-100,0,0,100,30.37,30.22,13,7,18,0.00
2013-2-23,43,39,34,-100,-100,-100,0,0,100,30.22,29.78,11,8,13,0.00
2013-2-24,48,42,36,-100,-100,-100,0,0,100,30.07,29.77,25,14,36,0.00
2013-2-25,43,37,33,-100,-100,-100,0,0,100,30.20,30.07,16,8,20,0.00
2013-2-26,46,39,34,-100,-100,-100,0,0,100,30.21,29.58,22,11,31,0.00
2013-2-27,53,46,42,-100,-100,-100,0,0,100,29.67,29.47,18,10,25,0.00
2013-2-28,46,44,41,-100,-100,-100,0,0,100,29.70,29.60,18,11,25,0.00
2013-3-1,43,42,39,-100,-100,-100,0,0,100,29.83,29.68,18,13,22,0.00
2013-3-2,39,36,33,-100,-100,-100,0,0,100,29.85,29.77,18,14,27,0.00
2013-3-3,39,35,32,-100,-100,-100,0,0,100,29.87,29.76,22,16,29,0.00
2013-3-4,42,36,30,-100,-100,-100,0,0,100,30.00,29.86,22,17,34,0.00
2013-3-5,42,37,33,-100,-100,-100,0,0,100,30.06,29.83,18,7,20,0.00
2013-3-6,42,39,35,-100,-100,-100,0,0,100,29.92,29.57,94,-458,58,0.00
2013-3-7,48,43,38,-100,-100,-100,0,0,100,30.11,29.92,0,-999,0,0.00
2013-3-8,47,42,37,-100,-100,-100,0,0,100,30.22,30.08,0,-999,0,0.00
2013-3-9,51,44,38,-100,-100,-100,0,0,100,30.31,30.21,0,-999,0,0.00
2013-3-10,50,43,37,-100,-100,-100,0,0,100,30.34,30.23,0,-999,0,0.00
2013-3-11,49,44,41,-100,-100,-100,0,0,100,30.25,29.97,0,-999,0,0.00
2013-3-12,55,49,45,-100,-100,-100,0,0,100,29.98,29.68,0,-999,0,0.00
2013-3-13,49,44,38,-100,-100,-100,0,0,100,30.02,29.87,25,-481,34,0.00
2013-3-14,44,38,34,-100,-100,-100,0,0,100,30.07,29.98,27,19,36,0.00
2013-3-15,55,44,36,-100,-100,-100,0,0,100,30.07,29.76,18,10,25,0.00
2013-3-16,50,45,39,-100,-100,-100,0,0,100,29.90,29.65,20,6,25,0.00
2013-3-17,40,39,37,-100,-100,-100,0,0,100,30.25,29.90,18,11,25,0.00
2013-3-18,40,38,34,-100,-100,-100,0,0,100,30.31,29.84,18,12,22,0.00
2013-3-19,56,44,38,-100,-100,-100,0,0,100,29.87,29.70,22,9,29,0.00
2013-3-20,51,44,39,-100,-100,-100,0,0,100,29.97,29.75,22,13,29,0.00
2013-3-21,45,36,32,-100,-100,-100,0,0,100,29.86,29.71,22,16,29,0.00
2013-3-22,45,37,31,-100,-100,-100,0,0,100,29.97,29.85,20,14,29,0.00
2013-3-23,50,42,33,-100,-100,-100,0,0,100,30.01,29.89,18,10,25,0.00
2013-3-24,42,38,35,-100,-100,-100,0,0,100,29.98,29.65,20,8,22,0.00
2013-3-25,37,35,33,-100,-100,-100,0,0,100,29.67,29.48,38,-53,38,0.00
2013-3-26,49,42,35,-100,-100,-100,0,0,100,29.93,29.66,16,10,22,0.00
2013-3-27,48,44,40,-100,-100,-100,0,0,100,30.07,29.93,29,16,31,0.00
2013-3-28,48,44,39,-100,-100,-100,0,0,100,30.18,30.05,22,14,27,0.00
2013-3-29,53,47,42,-100,-100,-100,0,0,100,30.22,30.11,16,9,22,0.00
2013-3-30,52,47,42,-100,-100,-100,0,0,100,30.21,30.10,9,4,16,0.00
2013-3-31,51,48,46,-100,-100,-100,0,0,100,30.12,29.72,20,8,22,0.00
2013-4-1,62,51,45,-100,-100,-100,0,0,100,29.95,29.68,25,11,31,0.00
2013-4-2,47,43,39,-100,-100,-100,0,0,100,30.14,29.94,20,13,29,0.00
2013-4-3,49,43,38,-100,-100,-100,0,0,100,30.35,30.13,22,14,38,0.00
2013-4-4,44,39,33,-100,-100,-100,0,0,100,30.40,30.10,20,11,22,0.00
2013-4-5,62,47,39,-100,-100,-100,0,0,100,30.10,29.78,18,8,25,0.00
2013-4-6,54,46,42,-100,-100,-100,0,0,100,30.32,29.99,20,10,25,0.00
2013-4-7,54,48,43,-100,-100,-100,0,0,100,30.28,29.98,22,15,27,0.00
2013-4-8,61,55,51,-100,-100,-100,0,0,100,30.06,29.95,16,9,18,0.00
2013-4-9,72,61,54,-100,-100,-100,0,0,100,30.04,29.91,16,11,20,0.00
2013-4-10,81,57,54,-100,-100,-100,0,0,100,29.94,29.76,18,9,20,0.00
2013-4-11,70,61,53,-100,-100,-100,0,0,100,29.87,29.75,16,7,22,0.00
2013-4-12,57,54,51,-100,-100,-100,0,0,100,29.84,29.58,29,4,47,0.00
2013-4-13,60,55,50,-100,-100,-100,0,0,100,29.92,29.70,20,9,25,0.00
2013-4-14,63,56,49,-100,-100,-100,0,0,100,30.11,29.91,20,7,22,0.00
2013-4-15,59,56,54,-100,-100,-100,0,0,100,30.28,30.10,11,7,13,0.00
2013-4-16,62,58,54,-100,-100,-100,0,0,100,30.30,30.10,22,10,27,0.00
2013-4-17,66,61,58,-100,-100,-100,0,0,100,30.22,30.10,20,8,27,0.00
2013-4-18,65,60,58,-100,-100,-100,0,0,100,30.23,30.01,18,9,20,0.00
2013-4-19,67,62,56,-100,-100,-100,0,0,100,30.01,29.59,34,18,54,0.00
2013-4-20,59,54,49,-100,-100,-100,0,0,100,30.30,29.74,20,14,34,0.00
2013-4-21,53,48,44,-100,-100,-100,0,0,100,30.58,30.29,20,12,25,0.00
2013-4-22,53,49,45,-100,-100,-100,0,0,100,30.57,30.40,18,15,22,0.00
2013-4-23,57,51,47,-100,-100,-100,0,0,100,30.40,30.12,18,12,22,0.00
2013-4-24,69,57,50,-100,-100,-100,0,0,100,30.12,29.78,22,14,27,0.00
2013-4-25,69,55,49,-100,-100,-100,0,0,100,30.27,29.88,27,13,36,0.00
2013-4-26,62,57,51,-100,-100,-100,0,0,100,30.42,30.27,13,7,16,0.00
2013-4-27,63,58,51,-100,-100,-100,0,0,100,30.41,30.28,16,5,20,0.00
2013-4-28,63,59,54,-100,-100,-100,0,0,100,30.28,30.14,18,11,22,0.00
2013-4-29,59,57,55,-100,-100,-100,0,0,100,30.17,30.05,20,13,27,0.00
2013-4-30,61,58,56,-100,-100,-100,0,0,100,30.26,30.07,18,12,27,0.00
2013-5-1,66,58,52,-100,-100,-100,0,0,100,30.41,30.26,18,10,20,0.00
2013-5-2,67,56,49,-100,-100,-100,0,0,100,30.43,30.30,16,7,20,0.00
2013-5-3,60,56,51,-100,-100,-100,0,0,100,30.37,30.29,16,12,20,0.00
2013-5-4,64,56,50,-100,-100,-100,0,0,100,30.33,30.18,20,11,22,0.00
2013-5-5,62,53,49,-100,-100,-100,0,0,100,30.24,30.15,18,11,25,0.00
2013-5-6,62,56,50,-100,-100,-100,0,0,100,30.17,30.05,18,13,22,0.00
2013-5-7,63,60,58,-100,-100,-100,0,0,100,30.07,29.93,38,8,47,0.00
2013-5-8,64,60,58,-100,-100,-100,0,0,100,29.99,29.93,13,7,16,0.00
2013-5-9,71,62,54,-100,-100,-100,0,0,100,29.97,29.90,13,6,18,0.00
2013-5-10,71,65,60,-100,-100,-100,0,0,100,30.00,29.86,16,6,20,0.00
2013-5-11,77,67,64,-100,-100,-100,0,0,100,29.93,29.69,18,8,27,0.00
2013-5-12,65,61,57,-100,-100,-100,0,0,100,30.01,29.72,25,14,31,0.00
2013-5-13,59,55,49,-100,-100,-100,0,0,100,30.13,30.01,22,12,31,0.00
2013-5-14,62,55,46,-100,-100,-100,0,0,100,30.19,30.04,13,8,22,0.00
2013-5-15,78,63,58,-100,-100,-100,0,0,100,30.06,29.66,18,11,20,0.00
2013-5-16,80,71,69,-100,-100,-100,0,0,100,29.87,29.71,20,9,29,0.00
2013-5-17,74,70,65,-100,-100,-100,0,0,100,30.14,29.87,16,6,18,0.00
2013-5-18,69,64,60,-100,-100,-100,0,0,100,30.23,30.13,16,11,18,0.00
2013-5-19,70,65,60,-100,-100,-100,0,0,100,30.20,30.08,13,6,16,0.00
2013-5-20,73,69,66,-100,-100,-100,0,0,100,30.11,29.96,13,8,16,0.00
2013-5-21,74,70,67,-100,-100,-100,0,0,100,29.99,29.86,13,7,18,0.00
2013-5-22,75,71,68,-100,-100,-100,0,0,100,29.92,29.83,16,10,18,0.00
2013-5-23,75,71,69,-100,-100,-100,0,0,100,29.90,29.74,22,12,27,0.00
2013-5-24,69,61,54,-100,-100,-100,0,0,100,30.11,29.71,27,18,38,0.00
2013-5-25,66,57,49,-100,-100,-100,0,0,100,30.13,30.04,22,19,31,0.00
2013-5-26,71,62,53,-100,-100,-100,0,0,100,30.19,30.10,16,11,25,0.00
2013-5-27,67,64,58,-100,-100,-100,0,0,100,30.27,30.16,13,6,18,0.00
2013-5-28,73,68,65,-100,-100,-100,0,0,100,30.19,30.05,18,7,25,0.00
2013-5-29,77,72,68,-100,-100,-100,0,0,100,30.11,30.05,16,9,20,0.00
2013-5-30,78,74,70,-100,-100,-100,0,0,100,30.17,30.08,13,9,20,0.00
2013-5-31,77,73,70,-100,-100,-100,0,0,100,30.14,30.01,16,9,20,0.00
2013-6-1,79,75,71,-100,-100,-100,0,0,100,30.03,29.91,16,11,20,0.00
2013-6-2,84,77,69,-100,-100,-100,0,0,100,29.92,29.81,18,11,38,0.00
2013-6-3,75,72,69,-100,-100,-100,0,0,100,29.89,29.79,20,7,18,0.00
2013-6-4,73,68,64,-100,-100,-100,0,0,100,30.10,29.89,18,9,22,0.00
2013-6-5,76,70,64,-100,-100,-100,0,0,100,30.16,30.04,20,8,25,0.00
2013-6-6,74,71,67,-100,-100,-100,0,0,100,30.08,29.87,18,13,22,0.00
2013-6-7,72,70,68,-100,-100,-100,0,0,100,29.87,29.54,22,14,29,0.00
2013-6-8,76,71,67,-100,-100,-100,0,0,100,30.06,29.62,18,9,22,0.00
2013-6-9,78,74,71,-100,-100,-100,0,0,100,30.19,30.06,16,6,18,0.00
2013-6-10,77,74,71,-100,-100,-100,0,0,100,30.10,29.79,27,13,38,0.00
2013-6-11,82,76,70,-100,-100,-100,0,0,100,29.82,29.73,20,12,29,0.00
2013-6-12,85,78,72,-100,-100,-100,0,0,100,29.84,29.76,13,7,18,0.00
2013-6-13,87,73,72,-100,-100,-100,0,0,100,29.80,29.41,25,14,38,0.00
2013-6-14,78,69,61,-100,-100,-100,0,0,100,29.92,29.53,27,14,36,0.00
2013-6-15,81,73,65,-100,-100,-100,0,0,100,30.05,29.92,11,8,16,0.00
2013-6-16,83,76,71,-100,-100,-100,0,0,100,30.00,29.85,16,6,22,0.00
2013-6-17,81,77,74,-100,-100,-100,0,0,100,29.93,29.86,16,7,18,0.00
2013-6-18,77,73,68,-100,-100,-100,0,0,100,29.91,29.77,22,8,43,0.00
2013-6-19,78,71,68,-100,-100,-100,0,0,100,30.13,29.85,20,8,25,0.00
2013-6-20,76,72,68,-100,-100,-100,0,0,100,30.26,30.13,13,9,18,0.00
2013-6-22,80,78,74,-100,-100,-100,0,0,100,30.24,30.14,22,12,27,0.00
2013-6-23,79,75,71,-100,-100,-100,0,0,100,30.18,30.06,20,7,22,0.00
2013-6-24,83,78,75,-100,-100,-100,0,0,100,30.10,29.98,18,7,25,0.00
2013-6-25,89,81,73,-100,-100,-100,0,0,100,30.03,29.86,13,7,16,0.00
2013-6-26,83,78,72,-100,-100,-100,0,0,100,29.93,29.78,11,7,16,0.00
2013-6-27,80,76,73,-100,-100,-100,0,0,100,29.81,29.59,20,10,29,0.00
2013-6-28,81,76,72,-100,-100,-100,0,0,100,29.62,29.47,18,10,29,0.00
2013-6-29,83,77,71,-100,-100,-100,0,0,100,29.67,29.50,16,8,18,0.00
2013-6-30,81,79,72,-100,-100,-100,0,0,100,29.83,29.67,22,10,27,0.00
2013-7-1,80,78,76,-100,-100,-100,0,0,100,29.96,29.83,22,15,27,0.00
2013-7-2,80,78,75,-100,-100,-100,0,0,100,30.16,29.98,22,16,27,0.00
2013-7-3,82,79,76,-100,-100,-100,0,0,100,30.22,30.16,18,12,22,0.00
2013-7-4,83,80,77,-100,-100,-100,0,0,100,30.24,30.16,20,13,27,0.00
2013-7-5,88,82,78,-100,-100,-100,0,0,100,30.22,30.11,16,12,20,0.00
2013-7-6,89,83,79,-100,-100,-100,0,0,100,30.16,30.05,16,10,18,0.00
2013-7-7,89,82,76,-100,-100,-100,0,0,100,30.10,29.97,22,11,29,0.00
2013-7-8,85,78,74,-100,-100,-100,0,0,100,30.08,30.01,13,7,18,0.00
2013-7-9,84,80,76,-100,-100,-100,0,0,100,30.08,29.98,11,8,16,0.00
2013-7-10,84,80,77,-100,-100,-100,0,0,100,30.00,29.84,18,11,25,0.00
2013-7-11,82,78,75,-100,-100,-100,0,0,100,29.90,29.82,16,9,22,0.00
2013-7-12,79,74,69,-100,-100,-100,0,0,100,29.98,29.88,25,12,29,0.00
2013-7-13,83,78,71,-100,-100,-100,0,0,100,30.25,29.98,13,7,16,0.00
2013-7-14,86,82,79,-100,-100,-100,0,0,100,30.32,30.25,16,10,18,0.00
2013-7-15,87,81,77,-100,-100,-100,0,0,100,30.29,30.15,11,7,13,0.00
2013-7-16,90,86,82,-100,-100,-100,0,0,100,30.20,30.13,16,7,20,0.00
2013-7-17,93,86,81,-100,-100,-100,0,0,100,30.18,30.07,9,5,9,0.00
2013-7-18,90,86,81,-100,-100,-100,0,0,100,30.09,29.97,13,6,16,0.00
2013-7-19,92,87,83,-100,-100,-100,0,0,100,29.98,29.85,16,9,20,0.00
2013-7-20,91,85,81,-100,-100,-100,0,0,100,29.87,29.76,16,11,22,0.00
2013-7-21,87,82,76,-100,-100,-100,0,0,100,29.92,29.85,25,6,31,0.00
2013-7-22,86,81,77,-100,-100,-100,0,0,100,29.91,29.74,20,7,22,0.00
2013-7-23,86,81,76,-100,-100,-100,0,0,100,29.74,29.61,18,9,25,0.00
2013-7-24,82,80,77,-100,-100,-100,0,0,100,29.87,29.65,16,9,20,0.00
2013-7-25,77,72,66,-100,-100,-100,0,0,100,30.00,29.87,22,14,27,0.00
2013-7-26,80,75,70,-100,-100,-100,0,0,100,30.06,29.99,13,8,16,0.00
2013-7-27,82,78,74,-100,-100,-100,0,0,100,30.03,29.91,20,13,22,0.00
2013-7-28,82,78,76,-100,-100,-100,0,0,100,29.93,29.86,18,13,22,0.00
2013-7-29,81,76,71,-100,-100,-100,0,0,100,30.13,29.93,20,10,27,0.00
2013-7-30,81,75,69,-100,-100,-100,0,0,100,30.20,30.12,11,7,13,0.00
2013-7-31,80,76,72,-100,-100,-100,0,0,100,30.13,30.01,20,8,25,0.00
2013-8-1,80,75,70,-100,-100,-100,0,0,100,30.01,29.78,16,10,47,0.00
2013-8-2,84,78,72,-100,-100,-100,0,0,100,29.94,29.81,16,10,18,0.00
2013-8-3,78,75,72,-100,-100,-100,0,0,100,29.95,29.89,11,6,16,0.00
2013-8-4,80,74,69,-100,-100,-100,0,0,100,29.98,29.87,16,11,22,0.00
2013-8-5,77,73,68,-100,-100,-100,0,0,100,30.09,29.98,13,8,18,0.00
2013-8-6,75,73,71,-100,-100,-100,0,0,100,30.06,29.99,18,13,25,0.00
2013-8-7,80,75,72,-100,-100,-100,0,0,100,30.06,29.98,20,15,25,0.00
2013-8-8,81,79,76,-100,-100,-100,0,0,100,30.02,29.97,20,14,25,0.00
2013-8-9,88,81,76,-100,-100,-100,0,0,100,29.97,29.82,31,11,45,0.00
2013-8-10,81,78,76,-100,-100,-100,0,0,100,30.06,29.91,9,5,13,0.00
2013-8-11,81,77,74,-100,-100,-100,0,0,100,30.10,30.00,9,6,11,0.00
2013-8-16,-200,0,200,-100,-100,-100,0,0,100,30.15,30.15,4,3,7,0.00
2013-8-17,72,69,67,-100,-100,-100,0,0,100,30.20,30.18,9,5,11,0.00
2013-8-18,-200,0,200,-100,-100,-100,0,0,100,0.00,40.00,9,9,11,0.00
2013-8-19,-200,0,200,-100,-100,-100,0,0,100,30.09,30.09,11,9,16,0.00
2013-8-20,-200,0,200,-100,-100,-100,0,0,100,30.15,30.15,7,7,9,0.00
2013-8-22,86,81,76,-100,-100,-100,0,0,100,30.06,29.90,13,8,18,0.00
2013-9-3,81,80,79,-100,-100,-100,0,0,100,29.82,29.81,11,10,16,0.00
2013-9-4,76,72,70,-100,-100,-100,0,0,100,30.05,30.00,11,8,13,0.00
2013-9-6,72,72,72,-100,-100,-100,0,0,100,30.13,30.13,11,11,18,0.00
2013-9-17,65,63,60,-100,-100,-100,0,0,100,30.39,30.32,9,7,16,0.00
2013-9-18,65,65,65,-100,-100,-100,0,0,100,30.18,30.18,4,4,7,0.00
2013-9-22,65,43,64,-100,-100,-100,0,0,100,29.79,29.75,18,13,25,0.00
2013-9-23,61,59,58,-100,-100,-100,0,0,100,30.06,29.94,18,14,22,0.00
2013-10-10,61,61,60,-100,-100,-100,0,0,100,30.00,29.99,16,16,20,0.00
2013-10-11,65,62,60,-100,-100,-100,0,0,100,29.97,29.94,16,14,18,0.00
2013-10-13,61,30,61,-100,-100,-100,0,0,100,30.26,30.26,18,17,22,0.00
2013-10-14,63,60,59,-100,-100,-100,0,0,100,30.29,30.23,13,10,18,0.00
2013-10-15,68,64,59,-100,-100,-100,0,0,100,30.19,30.09,7,6,9,0.00
2013-10-17,64,64,64,-100,-100,-100,0,0,100,29.87,29.87,9,6,11,0.00
2013-10-20,59,30,59,-100,-100,-100,0,0,100,30.06,30.06,9,6,13,0.00
2013-10-21,63,63,63,-100,-100,-100,0,0,100,30.00,30.00,20,20,25,0.00
2013-10-22,64,63,62,-100,-100,-100,0,0,100,29.94,29.83,13,6,18,0.00
2013-10-23,51,50,50,-100,-100,-100,0,0,100,29.83,29.80,13,12,18,0.00
2013-10-30,56,56,56,-100,-100,-100,0,0,100,30.28,30.28,9,9,11,0.00
2013-10-31,64,61,58,-100,-100,-100,0,0,100,30.13,29.92,18,9,22,0.00
2013-11-1,67,64,62,-100,-100,-100,0,0,100,29.66,29.60,13,10,18,0.00
2013-11-2,61,60,58,-100,-100,-100,0,0,100,29.68,29.66,7,6,7,0.00
2013-11-3,53,26,53,-100,-100,-100,0,0,100,30.16,30.16,16,14,22,0.00
2013-11-4,47,43,40,-100,-100,-100,0,0,100,30.60,30.57,16,10,22,0.00
2013-11-5,56,55,52,-100,-100,-100,0,0,100,30.54,30.47,11,8,11,0.00
2013-11-9,-200,0,200,-100,-100,-100,0,0,100,0.00,40.00,16,16,20,0.00
2013-11-11,55,50,48,-100,-100,-100,0,0,100,30.19,30.10,13,12,18,0.00
2013-11-12,40,40,40,-100,-100,-100,0,0,100,30.23,30.20,18,18,25,0.00
2013-11-13,36,35,34,-100,-100,-100,0,0,100,30.42,30.38,16,16,22,0.00
2013-11-15,47,47,47,-100,-100,-100,0,0,100,30.20,30.20,9,9,11,0.00
2013-11-16,50,48,47,-100,-100,-100,0,0,100,30.31,30.22,9,4,11,0.00